Weather in Tsentral'naya usad'ba sovkhoza imeni Kalinina

Russia / Penza Oblast     53°08′49″N   44°05′49″E
temp.,
°C
wind,
m/s
gust,
m/s
humid.,
%
clouds,
%
prec.,
mm/h
press.,
hPa
HPBL,
m
27 july, tue
tue2700:00+16sw336142 0.0 102231
03:00+17w2559100 0.0 102288
06:00+17wsw268031 0.3 1021158
09:00+22w33606 0.3 1020515
12:00+26nw134624 0.0 10201738
15:00+26nnw244362 0.0 10181770
18:00+23nw125543 0.0 101882
21:00+19nw11621 0.0 101811
28 july, wed
wed2800:00+17wsw116972 0.0 101811
03:00+16w22724 0.0 101813
06:00+18nw117128 0.0 101841
09:00+22ne115665 0.0 1018421
12:00+26wsw23430 0.0 10171674
15:00+28wnw233518 0.0 10152354
18:00+27s22487 0.0 101457
21:00+23sw3652100 0.0 1014135
29 july, thu
thu2900:00+19ssw1166100 0.1 101311
03:00+19w3471100 0.3 101399
06:00+19sse41166100 0.1 1010267
09:00+22ssw7136180 0.3 10081026
12:00+27wsw9125275 0.2 10071983
15:00+25w61155100 0.3 1006646
18:00+24w3763100 0.0 1006181
21:00+21wnw2271100 0.0 100717
30 july, fri
fri3000:00+18nw3579100 0.0 100873
03:00+17wnw22875 0.0 100920
06:00+19w127999 0.0 100964
09:00+24sw236376 0.0 1010484
12:00+28wsw4546100 0.0 10091940
15:00+28w244990 0.0 1008842
18:00+28s1152100 0.0 100747
21:00+22ssw3575100 0.1 100999
31 july, sat
sat3100:00+20sw36810 0.0 1009140
03:00+18ssw359528 0.0 100998
06:00+19s24864 0.0 1009131
09:00+24sw34667 0.0 1009731
12:00+27w4655100 1.0 10081564
15:00+27nw465299 1.1 10081102
18:00+27wsw235518 0.0 1008292
21:00+22wsw11610 0.0 100911